Voltar ao catálogo

ONEWEB-0290

AtivoComunicaçõesPO
NORAD 49080·PAYLOAD·🇬🇧 United Kingdom

Lançado Aug 21, 2021 de Baikonur Cosmodrome

Loading…

Próximas Passagens (próximas 24 horas)

TLE

AtualizadoSource: CelesTrak SupGP

Época: Sep 14, 2026, 10:20 UTC

1 49080C 21075F   26257.43072174 -.00002216  00000+0 -57147-2 0  2571
2 49080  87.9210 348.1388 0001429  93.5767  35.7601 13.17651635    19

Acompanhe ONEWEB-0290 em tempo real com AllMySat

Download on the App Store